Location: Cheyres
(46.8153°N, 6.7877°E)
Time: 11:12:19
(UTC+00:00)

Gbstr 26 Del rocket - Pass Details

Date: 19 September 2021
Orbit: 492 x 1263 km, 51.8° (Epoch: 18 October)

Event Time Altitude Azimuth Distance (km) Brightness Sun altitude
Exits shadow 01:35:37 53° 319° (NW) 1,478 4.8 -34.1°
Maximum altitude 01:37:02 60° 359° (N) 1,368 4.8 -33.9°
Drops below altitude 10° 01:44:21 10° 79° (E) 2,967 7.1 -33.1°
Sets 01:46:57 0° 83° (E) 3,827 7.8 -32.8°
